[[{"header":{"parameterUnit":"m.s-1","parameterCategory":1,"la1":30.2991,"la2":30.254,"lo1":-89.0895,"lo2":-89.0444,"dy":0.0017,"dx":0.0017,"nx":28,"ny":28,"refTime":"2024-04-15T03:00:00:Z","depth":0,"parameterNumber":2,"parameterNumberName":"U-component_of_WINDS"},"data":[0,0,0,0,0,0,0,0,0,0,0,0,0,0,0,0,0,0,0,0,0,0,0,0,0,0,0,0,0,0,0,0,0,0,0,0,0,0,0,0,0,0,0,0,0,0,0,0,0,0,0,0,0,0,0,0,0,0,0.5682,0.5683,0,0.5769,0.577,0.5771,0.5808,0.5808,0.5808,0.5808,0.5895,0.5898,0.59,0,0,0,0,0,0,0,0,0,0,0,0,0,0.5545,0.5547,0.5682,0.5683,0.5684,0.5769,0.577,0.5771,0.5808,0.5808,0.5808,0.5808,0.5894,0.5897,0.59,0,0,0,0,0,0,0,0,0,0,0,0,0,0.5615,0.5548,0.5681,0.5713,0.5716,0.5768,0.577,0.5771,0.5809,0.5808,0.5808,0.5808,0.5894,0.5897,0.5901,0.5928,0,0,0.5912,0.5914,0,0,0,0,0,0,0,0,0.5611,0.562,0.5707,0.5711,0.5715,0.5778,0.5754,0.5824,0.5809,0.5773,0.5808,0.5808,0.5856,0.5863,0.588,0.5932,0.5935,0.5912,0.5914,0.5916,0.5917,0,0,0,0,0,0,0,0.5606,0.5617,0.5716,0.5708,0.5713,0.5722,0.5731,0.5767,0.5815,0.5776,0.5779,0.5789,0.5858,0.5876,0.5882,0.5937,0.5912,0.5915,0.5918,0.5919,0.6015,0.6015,0,0,0,0,0,0,0.5597,0.5612,0.5713,0.5719,0.5662,0.5724,0.5735,0.5758,0.5815,0.5823,0.5789,0.5791,0.587,0.5878,0.5885,0.592,0.5916,0.5919,0.5922,0.6014,0.6015,0.6015,0,0,0,0,0,0,0.5594,0.5605,0.571,0.5666,0.568,0.5727,0.5752,0.5759,0.5777,0.5824,0.5833,0.5799,0.587,0.588,0.5917,0.5924,0.5921,0.5924,0.6014,0.6014,0.6015,0.5991,0,0,0,0,0,0,0.5589,0.5604,0.5615,0.5666,0.5683,0.5741,0.5752,0.5761,0.5784,0.5786,0.5836,0.5844,0.5871,0.5911,0.592,0.5929,0.5927,0.6013,0.6014,0.6015,0.5991,0.599,0.599,0,0,0,0,0,0.5584,0.5604,0.5616,0.5628,0.5698,0.5741,0.575,0.5781,0.5784,0.5796,0.5826,0.5842,0.5921,0.5915,0.5925,0.5935,0.6013,0.6014,0.6015,0.5991,0.599,0.599,0,0,0,0,0,0,0.5552,0.5612,0.5625,0.5662,0.5696,0.5747,0.5763,0.5779,0.5813,0.5814,0.5851,0.5861,0.5895,0.5919,0.591,0.5964,0.5969,0.5972,0.5947,0.5947,0.5946,0.594,0.593,0,0,0,0,0,0.555,0.558,0.563,0.5658,0.5675,0.5716,0.5736,0.5757,0.5793,0.5808,0.5841,0.5875,0.5908,0.5928,0.5961,0.5994,0.6006,0.6006,0.6006,0.6005,0.6007,0.6026,0.6027,0.6017,0.6017,0.6017,0,0,0.5544,0.558,0.5598,0.5653,0.5682,0.5712,0.5728,0.5759,0.5782,0.5812,0.585,0.5875,0.5915,0.595,0.5967,0.5971,0.6012,0.6006,0.6005,0.6008,0.6027,0.6028,0.6029,0.6018,0.6018,0.6018,0,0,0.555,0.5581,0.5608,0.5636,0.568,0.5707,0.5713,0.5762,0.578,0.5818,0.5841,0.5868,0.5924,0.5952,0.5973,0.5989,0.6005,0.5999,0.5995,0.6013,0.6014,0.6015,0.6021,0.6022,0.6001,0.6001,0.6001,0,0.5538,0.5585,0.5619,0.565,0.5673,0.5702,0.5729,0.5755,0.5807,0.5822,0.5826,0.5896,0.5926,0.5968,0.5971,0.5988,0.5996,0.5994,0.6011,0.6013,0.6014,0.602,0.6022,0.6,0.6,0.6,0.6,0,0.5568,0.56,0.5617,0.5667,0.5692,0.572,0.5758,0.5779,0.5798,0.5824,0.5861,0.5898,0.5938,0.595,0.5968,0.5994,0.5995,0.6004,0.601,0.6013,0.6019,0.6022,0.5998,0.5998,0.5999,0.5999,0,0,0.5556,0.5625,0.563,0.5653,0.5703,0.5729,0.5758,0.5799,0.5816,0.585,0.5876,0.5922,0.5931,0.5955,0.5977,0.5993,0.6003,0.6,0.6002,0.6,0.6034,0.6026,0.6029,0.6014,0.6014,0.6015,0.603,0,0.5569,0.5624,0.5655,0.5697,0.5727,0.5755,0.5781,0.5814,0.5839,0.5868,0.5895,0.5927,0.5937,0.5952,0.5969,0.5998,0.601,0.5997,0.6037,0.6038,0.6026,0.6032,0.6024,0.6037,0.6033,0.6033,0.6034,0,0.5591,0.5626,0.5671,0.5718,0.5732,0.5754,0.5794,0.5821,0.5859,0.5876,0.5903,0.5924,0.5956,0.5959,0.6002,0.5993,0.6011,0.6027,0.6029,0.6034,0.6036,0.6037,0.6042,0.6044,0.6038,0.6037,0.6037,0,0.5578,0.5636,0.5671,0.569,0.5745,0.576,0.5784,0.5822,0.5844,0.5878,0.5892,0.5929,0.5949,0.5977,0.6008,0.6007,0.6048,0.6053,0.6062,0.6062,0.607,0.6069,0.6078,0.6081,0.6081,0.6081,0.6081,0,0.559,0.5616,0.5666,0.5687,0.5717,0.5752,0.5781,0.5806,0.584,0.5866,0.5892,0.5916,0.5955,0.5983,0.6007,0.6039,0.6048,0.6062,0.6069,0.606,0.6059,0.6073,0.6073,0.6082,0.6082,0.6081,0.6081,0,0.558,0.5615,0.5654,0.5704,0.5717,0.5737,0.5779,0.58,0.5826,0.5859,0.5868,0.5909,0.5944,0.5977,0.6024,0.604,0.6072,0.608,0.6059,0.6063,0.607,0.6069,0.6089,0.6093,0.6093,0.6093,0.6093,0,0.5585,0.5607,0.5658,0.5678,0.5701,0.5733,0.5756,0.579,0.5813,0.5857,0.5873,0.591,0.5941,0.5995,0.6029,0.6064,0.6073,0.6078,0.6079,0.607,0.6073,0.6072,0.6074,0.6077,0.6077,0.6077,0.6076,0,0.5591,0.5607,0.5639,0.5677,0.5704,0.5736,0.5768,0.5782,0.5823,0.5847,0.5883,0.5908,0.5955,0.5991,0.603,0.6054,0.6072,0.6076,0.608,0.6072,0.6059,0.6066,0.6057,0.6075,0.6075,0.6075,0.6076,0.6076,0.5589,0.5609,0.5648,0.5684,0.5712,0.5741,0.5764,0.5793,0.5824,0.5866,0.5884,0.5921,0.5957,0.6012,0.6035,0.6064,0.6068,0.6074,0.6075,0.6076,0.6075,0.6054,0.6071,0.6071,0.6071,0.6071,0.6071,0,0.5595,0.5622,0.5654,0.5699,0.5726,0.5742,0.5778,0.58,0.5832,0.5865,0.5895,0.5937,0.5972,0.6008,0.6045,0.606,0.607,0.6069,0.6068,0.6073,0.6069,0.6062,0.6061,0.6061,0.6061,0.6061,0.6061,0.6061,0.5602,0.5637,0.5657,0.5706,0.5733,0.5769,0.5789,0.5816,0.5843,0.5888,0.5917,0.5941,0.5975,0.6015,0.6047,0.6057,0.6069,0.6066,0.6078,0.6073,0.6074,0.6074,0.6068,0.6069,0.6069,0.6081,0.6081,0.6081]},{"header":{"parameterUnit":"m.s-1","parameterCategory":1,"la1":30.2991,"la2":30.254,"lo1":-89.0895,"lo2":-89.0444,"dy":0.0017,"dx":0.0017,"nx":28,"ny":28,"refTime":"2024-04-15T03:00:00:Z","depth":0,"parameterNumber":3,"parameterNumberName":"V-component_of_WINDS"},"data":[0,0,0,0,0,0,0,0,0,0,0,0,0,0,0,0,0,0,0,0,0,0,0,0,0,0,0,0,0,0,0,0,0,0,0,0,0,0,0,0,0,0,0,0,0,0,0,0,0,0,0,0,0,0,0,0,0,0,2.833,2.833,0,2.8333,2.8333,2.8333,2.8329,2.8329,2.8329,2.8329,2.833,2.833,2.833,0,0,0,0,0,0,0,0,0,0,0,0,0,2.832,2.832,2.833,2.833,2.833,2.8333,2.8333,2.8333,2.8329,2.8329,2.8329,2.8329,2.833,2.833,2.833,0,0,0,0,0,0,0,0,0,0,0,0,0,2.8323,2.832,2.833,2.8328,2.8328,2.8333,2.8333,2.8333,2.8329,2.8329,2.8329,2.8329,2.833,2.833,2.833,2.8336,0,0,2.8331,2.8331,0,0,0,0,0,0,0,0,2.8323,2.8324,2.8328,2.8328,2.8328,2.833,2.833,2.8334,2.8329,2.8329,2.8329,2.8328,2.833,2.833,2.8331,2.8336,2.8336,2.8331,2.8331,2.8331,2.8332,0,0,0,0,0,0,0,2.8323,2.8324,2.8331,2.8328,2.8328,2.8327,2.8327,2.833,2.833,2.8329,2.8328,2.8329,2.833,2.8331,2.8331,2.8336,2.8331,2.8331,2.8332,2.8332,2.8346,2.8346,0,0,0,0,0,0,2.8323,2.8323,2.8331,2.8331,2.8325,2.8328,2.8328,2.833,2.833,2.833,2.8329,2.8329,2.8331,2.8331,2.8331,2.8338,2.8331,2.8332,2.8332,2.8346,2.8346,2.8346,0,0,0,0,0,0,2.8323,2.8324,2.833,2.8327,2.8328,2.8328,2.833,2.833,2.8331,2.8331,2.8331,2.833,2.8331,2.8331,2.8335,2.8338,2.8332,2.8332,2.8345,2.8346,2.8346,2.8351,0,0,0,0,0,0,2.8322,2.8324,2.8326,2.8327,2.8328,2.8334,2.833,2.833,2.8332,2.8331,2.8332,2.8332,2.8331,2.8335,2.8335,2.8338,2.8332,2.8345,2.8345,2.8346,2.8351,2.8352,2.8353,0,0,0,0,0,2.8322,2.8327,2.8326,2.8327,2.8331,2.8335,2.8335,2.8334,2.8332,2.8334,2.8334,2.8332,2.8338,2.8335,2.8336,2.8339,2.8345,2.8345,2.8346,2.8351,2.8352,2.8353,0,0,0,0,0,0,2.8325,2.8327,2.8326,2.8331,2.8333,2.8334,2.8336,2.8335,2.8337,2.8337,2.8335,2.8335,2.834,2.834,2.8337,2.8345,2.8341,2.8342,2.8344,2.8345,2.8346,2.8346,2.8332,0,0,0,0,0,2.8326,2.8329,2.8331,2.8335,2.8336,2.8336,2.8338,2.8337,2.8339,2.8339,2.8339,2.834,2.8343,2.8344,2.8346,2.8351,2.8351,2.8354,2.8355,2.8355,2.8356,2.8359,2.836,2.8348,2.8348,2.8348,0,0,2.8328,2.833,2.8332,2.8336,2.8337,2.834,2.8337,2.834,2.8342,2.8339,2.8343,2.8344,2.8345,2.835,2.8352,2.835,2.8359,2.8356,2.8357,2.8357,2.836,2.8361,2.8362,2.8348,2.8348,2.8348,0,0,2.8334,2.8336,2.834,2.8342,2.8344,2.8344,2.8345,2.8347,2.8347,2.8352,2.835,2.8352,2.8356,2.8357,2.8358,2.8366,2.8364,2.8367,2.8371,2.8374,2.8375,2.8376,2.8379,2.838,2.8367,2.8367,2.8367,0,2.8337,2.8342,2.8342,2.8346,2.8348,2.8346,2.835,2.8352,2.8354,2.8355,2.8354,2.8359,2.836,2.8365,2.8367,2.8368,2.8369,2.8366,2.8375,2.8376,2.8377,2.8379,2.838,2.8367,2.8367,2.8367,2.8367,0,2.8345,2.8349,2.8352,2.8355,2.8358,2.8361,2.8362,2.8364,2.8364,2.8364,2.8369,2.837,2.8372,2.8373,2.8372,2.8379,2.8377,2.8375,2.8371,2.8378,2.8381,2.8382,2.8368,2.8368,2.8368,2.8368,0,0,2.8352,2.8357,2.8358,2.836,2.8362,2.8365,2.8369,2.8372,2.8374,2.8376,2.838,2.8383,2.8382,2.8383,2.8382,2.8385,2.8392,2.8383,2.8383,2.8384,2.8399,2.84,2.8401,2.8391,2.8391,2.8391,2.8399,0,2.8358,2.8366,2.8367,2.8373,2.8377,2.8376,2.838,2.8382,2.8382,2.8385,2.8386,2.8389,2.8386,2.8387,2.839,2.839,2.8394,2.839,2.8393,2.8393,2.8393,2.8403,2.8404,2.8411,2.84,2.84,2.84,0,2.8366,2.837,2.8377,2.838,2.8382,2.8385,2.8388,2.8391,2.8394,2.8394,2.8396,2.8395,2.8399,2.8396,2.8401,2.8398,2.84,2.84,2.8401,2.8401,2.8397,2.8403,2.8413,2.8415,2.8401,2.8401,2.8401,0,2.8371,2.8377,2.8383,2.8384,2.8388,2.839,2.8392,2.8394,2.8397,2.8399,2.8401,2.8404,2.8405,2.8408,2.8408,2.8405,2.8413,2.841,2.8413,2.8413,2.8415,2.8415,2.8426,2.8416,2.8416,2.8416,2.8416,0,2.8378,2.8382,2.8385,2.8388,2.8393,2.8394,2.8399,2.84,2.8403,2.8406,2.8405,2.8408,2.8408,2.8411,2.8411,2.8416,2.8417,2.8417,2.8417,2.8417,2.8417,2.8418,2.8417,2.8416,2.8416,2.8416,2.8416,0,2.8383,2.8385,2.8391,2.8395,2.8396,2.8399,2.8402,2.8405,2.8407,2.8411,2.8412,2.8413,2.8417,2.8418,2.8422,2.8422,2.8427,2.8427,2.8427,2.8427,2.843,2.843,2.8442,2.8444,2.8433,2.8433,2.8433,0,2.8387,2.8391,2.8396,2.8398,2.84,2.8404,2.8407,2.8408,2.841,2.8414,2.8417,2.8421,2.8424,2.843,2.8431,2.8434,2.8433,2.8437,2.8434,2.8434,2.8433,2.8433,2.8434,2.8438,2.8438,2.8438,2.8438,0,2.8395,2.8396,2.84,2.8404,2.8408,2.8411,2.8414,2.8416,2.8418,2.8421,2.8425,2.8428,2.8432,2.8436,2.844,2.8441,2.844,2.844,2.8441,2.8441,2.8441,2.8441,2.8429,2.8439,2.8439,2.8439,2.8439,2.8439,2.84,2.8403,2.8407,2.8412,2.8415,2.8418,2.8421,2.8423,2.8427,2.8432,2.8432,2.8437,2.8439,2.8444,2.8446,2.8449,2.8448,2.8449,2.8449,2.845,2.845,2.844,2.845,2.845,2.845,2.845,2.845,0,2.8407,2.841,2.8414,2.8419,2.8423,2.8423,2.8427,2.843,2.8434,2.8437,2.8441,2.8446,2.845,2.8451,2.8455,2.8458,2.8457,2.8459,2.8458,2.8459,2.8451,2.845,2.8459,2.8459,2.8459,2.8459,2.8459,2.8459,2.8411,2.8418,2.8419,2.8427,2.8429,2.8434,2.8437,2.844,2.8442,2.8448,2.8452,2.8453,2.8456,2.846,2.8464,2.8464,2.8465,2.8467,2.8467,2.846,2.8459,2.8458,2.8457,2.8467,2.8467,2.8474,2.8474,2.8474]}]]